User: anonymous   Login
Location: Chervonnoye
(48.6000°N, 34.4000°E)
Time: 08:44:18
(UTC+00:00)
Language:

COSMOS 2251 DEB - Orbit

View from above orbital plane
View from above orbital plane
View from above satellite
View from above satellite

Ground track
Ground track

The orbit data is extracted from the following two-line orbital elements,

1 39583U 93036BUN 21166.45656056  .00000504  00000-0  15200-3 0  9992
2 39583  73.9382  75.5668 0202257 189.6176 170.1082 14.34107168381045
Epoch (UTC): 15 June 2021 10:57:26
Eccentricity: 0.0202257
inclination: 73.9382°
perigee height: 633 km
apogee height: 923 km
right ascension of ascending node: 75.5668°
argument of perigee: 189.6176°
revolutions per day: 14.34107168
mean anomaly at epoch: 170.1082°
orbit number at epoch: 38104

The dashed part of the orbit path shows where the satellite is in the earth's shadow,  

DLR